Time,TemperatureF,DewpointF,PressureIn,WindDirection,WindDirectionDegrees,WindSpeedMPH,WindSpeedGustMPH,Humidity,HourlyPrecipIn,Conditions,Clouds,dailyrainin,SoftwareType,DateUTC
2013-11-25 00:02:00,18.4,16.0,30.24,SSW,213,0.0,0.0,91,0.00,,,0.00,weatherlink.com 1.10,2013-11-25 07:02:00,
2013-11-25 00:17:00,18.3,16.0,30.23,SSW,213,0.0,0.0,91,0.00,,,0.00,weatherlink.com 1.10,2013-11-25 07:17:00,
2013-11-25 00:32:00,18.2,16.0,30.23,SSW,213,0.0,0.0,91,0.00,,,0.00,weatherlink.com 1.10,2013-11-25 07:32:00,
2013-11-25 00:47:00,18.2,16.0,30.23,SSW,213,0.0,1.0,91,0.00,,,0.00,weatherlink.com 1.10,2013-11-25 07:47:00,
2013-11-25 01:02:00,18.2,16.0,30.23,SSW,213,0.0,0.0,91,0.00,,,0.00,weatherlink.com 1.10,2013-11-25 08:02:00,
2013-11-25 01:17:00,18.2,16.0,30.23,SSW,213,0.0,0.0,91,0.00,,,0.00,weatherlink.com 1.10,2013-11-25 08:17:00,
2013-11-25 01:32:00,18.1,16.0,30.23,SSW,213,0.0,0.0,91,0.00,,,0.00,weatherlink.com 1.10,2013-11-25 08:32:00,
2013-11-25 01:47:00,18.0,16.0,30.25,SSW,213,0.0,0.0,91,0.00,,,0.00,weatherlink.com 1.10,2013-11-25 08:47:00,
2013-11-25 02:02:00,18.0,16.0,30.24,SSW,213,0.0,0.0,91,0.00,,,0.00,weatherlink.com 1.10,2013-11-25 09:02:00,
2013-11-25 02:17:00,18.1,16.0,30.24,SSW,213,0.0,0.0,91,0.00,,,0.00,weatherlink.com 1.10,2013-11-25 09:17:00,
2013-11-25 02:32:00,18.2,16.0,30.25,SSW,213,0.0,0.0,91,0.00,,,0.00,weatherlink.com 1.10,2013-11-25 09:32:00,
2013-11-25 02:47:00,18.4,17.0,30.25,SSW,213,0.0,0.0,92,0.00,,,0.00,weatherlink.com 1.10,2013-11-25 09:47:00,
2013-11-25 03:02:00,18.4,16.0,30.25,SSW,213,0.0,0.0,91,0.00,,,0.00,weatherlink.com 1.10,2013-11-25 10:02:00,
2013-11-25 03:18:00,18.5,16.0,30.24,SSW,213,0.0,0.0,91,0.00,,,0.00,weatherlink.com 1.10,2013-11-25 10:18:00,
2013-11-25 03:33:00,18.4,16.0,30.25,SSW,213,0.0,0.0,91,0.00,,,0.00,weatherlink.com 1.10,2013-11-25 10:33:00,
2013-11-25 03:48:00,18.1,16.0,30.25,SSW,213,0.0,0.0,91,0.00,,,0.00,weatherlink.com 1.10,2013-11-25 10:48:00,
2013-11-25 04:03:00,17.5,15.0,30.25,SSW,213,0.0,0.0,90,0.00,,,0.00,weatherlink.com 1.10,2013-11-25 11:03:00,
2013-11-25 04:18:00,17.0,15.0,30.26,SSW,213,0.0,2.0,90,0.00,,,0.00,weatherlink.com 1.10,2013-11-25 11:18:00,
2013-11-25 04:33:00,16.3,14.0,30.26,SSW,213,0.0,0.0,90,0.00,,,0.00,weatherlink.com 1.10,2013-11-25 11:33:00,
2013-11-25 04:48:00,15.9,13.0,30.26,SSW,213,0.0,0.0,89,0.00,,,0.00,weatherlink.com 1.10,2013-11-25 11:48:00,
2013-11-25 05:03:00,15.7,13.0,30.28,SSW,213,0.0,0.0,90,0.00,,,0.00,weatherlink.com 1.10,2013-11-25 12:03:00,
2013-11-25 05:18:00,15.9,14.0,30.28,SSW,213,0.0,0.0,91,0.00,,,0.00,weatherlink.com 1.10,2013-11-25 12:18:00,
2013-11-25 05:33:00,16.7,15.0,30.29,SSW,213,0.0,0.0,92,0.00,,,0.00,weatherlink.com 1.10,2013-11-25 12:33:00,
2013-11-25 05:48:00,17.5,16.0,30.30,SSW,213,0.0,0.0,92,0.00,,,0.00,weatherlink.com 1.10,2013-11-25 12:48:00,
2013-11-25 06:03:00,17.8,16.0,30.30,SSW,213,0.0,0.0,91,0.00,,,0.00,weatherlink.com 1.10,2013-11-25 13:03:00,
2013-11-25 06:19:00,18.1,16.0,30.30,SSW,213,0.0,0.0,92,0.00,,,0.00,weatherlink.com 1.10,2013-11-25 13:19:00,
2013-11-25 06:33:00,18.0,16.0,30.30,SSW,213,0.0,0.0,91,0.00,,,0.00,weatherlink.com 1.10,2013-11-25 13:33:00,
2013-11-25 06:49:00,18.1,16.0,30.30,SSW,213,0.0,0.0,91,0.00,,,0.00,weatherlink.com 1.10,2013-11-25 13:49:00,
2013-11-25 07:03:00,17.4,15.0,30.30,SSW,213,0.0,1.0,90,0.00,,,0.00,weatherlink.com 1.10,2013-11-25 14:03:00,
2013-11-25 07:18:00,16.9,15.0,30.31,SSW,213,0.0,1.0,90,0.00,,,0.00,weatherlink.com 1.10,2013-11-25 14:18:00,
2013-11-25 07:33:00,17.1,15.0,30.32,SSW,213,0.0,2.0,90,0.00,,,0.00,weatherlink.com 1.10,2013-11-25 14:33:00,
2013-11-25 07:48:00,17.5,15.0,30.31,SSW,213,0.0,2.0,89,0.00,,,0.00,weatherlink.com 1.10,2013-11-25 14:48:00,
2013-11-25 08:03:00,18.8,16.0,30.33,SSW,213,0.0,2.0,90,0.00,,,0.00,weatherlink.com 1.10,2013-11-25 15:03:00,
2013-11-25 08:18:00,21.1,18.0,30.33,SSW,213,0.0,2.0,88,0.00,,,0.00,weatherlink.com 1.10,2013-11-25 15:18:00,
2013-11-25 08:33:00,23.3,20.0,30.35,SSW,213,0.0,1.0,87,0.00,,,0.00,weatherlink.com 1.10,2013-11-25 15:33:00,
2013-11-25 08:49:00,23.5,20.0,30.36,SSW,213,0.0,3.0,85,0.00,,,0.00,weatherlink.com 1.10,2013-11-25 15:49:00,
2013-11-25 09:04:00,24.4,21.0,30.36,SSW,213,0.0,0.0,88,0.00,,,0.00,weatherlink.com 1.10,2013-11-25 16:04:00,
2013-11-25 09:19:00,26.0,22.0,30.36,SSW,213,1.0,1.0,86,0.01,,,0.01,weatherlink.com 1.10,2013-11-25 16:19:00,
2013-11-25 09:34:00,25.1,21.0,30.36,SSW,213,0.0,4.0,84,0.02,,,0.02,weatherlink.com 1.10,2013-11-25 16:34:00,
2013-11-25 09:49:00,26.7,23.0,30.36,SSW,213,0.0,0.0,84,0.03,,,0.03,weatherlink.com 1.10,2013-11-25 16:49:00,
2013-11-25 10:04:00,27.5,23.0,30.36,SSW,213,0.0,1.0,84,0.05,,,0.05,weatherlink.com 1.10,2013-11-25 17:04:00,
2013-11-25 10:19:00,26.9,23.0,30.36,SSW,213,1.0,4.0,85,0.06,,,0.07,weatherlink.com 1.10,2013-11-25 17:19:00,
2013-11-25 10:34:00,26.6,23.0,30.37,SSW,213,0.0,4.0,85,0.06,,,0.08,weatherlink.com 1.10,2013-11-25 17:34:00,
2013-11-25 10:49:00,26.6,22.0,30.37,SW,214,3.0,5.0,83,0.07,,,0.10,weatherlink.com 1.10,2013-11-25 17:49:00,
2013-11-25 11:04:00,27.1,23.0,30.37,SW,214,1.0,4.0,83,0.06,,,0.11,weatherlink.com 1.10,2013-11-25 18:04:00,
2013-11-25 11:19:00,28.5,24.0,30.36,SW,214,2.0,6.0,83,0.05,,,0.12,weatherlink.com 1.10,2013-11-25 18:19:00,
2013-11-25 11:34:00,29.3,24.0,30.35,SW,217,4.0,7.0,81,0.05,,,0.13,weatherlink.com 1.10,2013-11-25 18:34:00,
2013-11-25 11:49:00,30.6,25.0,30.35,SW,219,3.0,6.0,80,0.04,,,0.14,weatherlink.com 1.10,2013-11-25 18:49:00,
2013-11-25 12:04:00,31.3,25.0,30.35,SW,222,0.0,6.0,78,0.04,,,0.15,weatherlink.com 1.10,2013-11-25 19:04:00,
2013-11-25 12:19:00,32.1,26.0,30.34,SW,222,0.0,3.0,78,0.05,,,0.17,weatherlink.com 1.10,2013-11-25 19:19:00,
2013-11-25 12:35:00,32.8,26.0,30.34,SW,222,0.0,5.0,76,0.05,,,0.18,weatherlink.com 1.10,2013-11-25 19:35:00,
2013-11-25 12:50:00,33.0,26.0,30.33,SW,222,1.0,4.0,76,0.06,,,0.20,weatherlink.com 1.10,2013-11-25 19:50:00,
2013-11-25 13:05:00,33.0,26.0,30.33,SW,222,3.0,5.0,75,0.08,,,0.23,weatherlink.com 1.10,2013-11-25 20:05:00,
2013-11-25 13:20:00,32.9,27.0,30.33,SW,223,1.0,6.0,80,0.07,,,0.24,weatherlink.com 1.10,2013-11-25 20:20:00,
2013-11-25 13:35:00,33.6,26.0,30.33,SW,224,0.0,5.0,73,0.08,,,0.26,weatherlink.com 1.10,2013-11-25 20:35:00,
2013-11-25 13:50:00,34.4,28.0,30.34,SW,224,0.0,1.0,77,0.08,,,0.28,weatherlink.com 1.10,2013-11-25 20:50:00,
2013-11-25 14:05:00,35.1,29.0,30.33,SW,224,0.0,3.0,78,0.07,,,0.30,weatherlink.com 1.10,2013-11-25 21:05:00,
2013-11-25 14:20:00,34.4,28.0,30.33,SW,224,0.0,6.0,78,0.08,,,0.32,weatherlink.com 1.10,2013-11-25 21:20:00,
2013-11-25 14:35:00,35.1,29.0,30.33,SW,223,1.0,5.0,79,0.08,,,0.34,weatherlink.com 1.10,2013-11-25 21:35:00,
2013-11-25 15:06:00,35.3,30.0,30.33,SW,223,1.0,8.0,80,0.07,,,0.37,weatherlink.com 1.10,2013-11-25 22:06:00,
2013-11-25 15:20:00,35.1,30.0,30.34,SW,222,1.0,6.0,81,0.06,,,0.38,weatherlink.com 1.10,2013-11-25 22:20:00,
2013-11-25 15:35:00,35.2,30.0,30.34,SW,223,1.0,6.0,81,0.05,,,0.39,weatherlink.com 1.10,2013-11-25 22:35:00,
2013-11-25 15:50:00,34.9,29.0,30.34,SW,215,6.0,9.0,79,0.06,,,0.41,weatherlink.com 1.10,2013-11-25 22:50:00,
2013-11-25 16:05:00,34.4,29.0,30.34,SSW,212,6.0,8.0,82,0.04,,,0.41,weatherlink.com 1.10,2013-11-25 23:05:00,
2013-11-25 16:21:00,34.4,29.0,30.35,SSW,212,4.0,5.0,82,0.03,,,0.42,weatherlink.com 1.10,2013-11-25 23:21:00,
2013-11-25 16:36:00,33.0,28.0,30.35,SSW,212,2.0,7.0,83,0.04,,,0.43,weatherlink.com 1.10,2013-11-25 23:36:00,
2013-11-25 16:50:00,31.8,27.0,30.36,SSW,212,3.0,3.0,83,0.02,,,0.43,weatherlink.com 1.10,2013-11-25 23:50:00,
2013-11-25 17:06:00,30.5,26.0,30.37,SSW,212,4.0,7.0,84,0.02,,,0.43,weatherlink.com 1.10,2013-11-26 00:06:00,
2013-11-25 17:20:00,29.8,26.0,30.38,SSW,211,1.0,7.0,85,0.01,,,0.43,weatherlink.com 1.10,2013-11-26 00:20:00,
2013-11-25 17:35:00,29.1,25.0,30.39,SSW,211,0.0,4.0,86,0.00,,,0.43,weatherlink.com 1.10,2013-11-26 00:35:00,
2013-11-25 17:50:00,28.4,25.0,30.39,SSW,211,0.0,4.0,85,0.00,,,0.43,weatherlink.com 1.10,2013-11-26 00:50:00,
2013-11-25 18:05:00,27.4,24.0,30.40,SSW,211,0.0,1.0,86,0.00,,,0.43,weatherlink.com 1.10,2013-11-26 01:05:00,
2013-11-25 18:20:00,26.3,23.0,30.41,SSW,211,0.0,4.0,87,0.00,,,0.43,weatherlink.com 1.10,2013-11-26 01:20:00,
2013-11-25 18:35:00,25.6,22.0,30.42,SSW,211,0.0,1.0,87,0.00,,,0.43,weatherlink.com 1.10,2013-11-26 01:35:00,
2013-11-25 18:51:00,24.6,22.0,30.42,SSW,211,1.0,2.0,88,0.00,,,0.43,weatherlink.com 1.10,2013-11-26 01:51:00,
2013-11-25 19:05:00,24.4,21.0,30.43,SSW,211,0.0,2.0,88,0.00,,,0.43,weatherlink.com 1.10,2013-11-26 02:05:00,
2013-11-25 19:20:00,24.4,21.0,30.42,SSW,211,0.0,3.0,87,0.00,,,0.43,weatherlink.com 1.10,2013-11-26 02:20:00,
2013-11-25 19:35:00,24.7,21.0,30.43,SSW,211,0.0,0.0,86,0.00,,,0.43,weatherlink.com 1.10,2013-11-26 02:35:00,
2013-11-25 19:50:00,23.4,20.0,30.43,SSW,211,2.0,3.0,85,0.00,,,0.43,weatherlink.com 1.10,2013-11-26 02:50:00,
2013-11-25 20:05:00,22.9,19.0,30.43,SSW,211,0.0,4.0,85,0.00,,,0.43,weatherlink.com 1.10,2013-11-26 03:05:00,
2013-11-25 20:20:00,22.9,19.0,30.44,SSW,211,1.0,2.0,86,0.00,,,0.43,weatherlink.com 1.10,2013-11-26 03:20:00,
2013-11-25 20:35:00,23.0,19.0,30.44,SSW,211,0.0,0.0,86,0.00,,,0.43,weatherlink.com 1.10,2013-11-26 03:35:00,
2013-11-25 20:50:00,22.4,19.0,30.45,SSW,211,1.0,4.0,86,0.00,,,0.43,weatherlink.com 1.10,2013-11-26 03:50:00,
2013-11-25 21:05:00,22.4,19.0,30.45,SSW,211,0.0,3.0,86,0.00,,,0.43,weatherlink.com 1.10,2013-11-26 04:05:00,
2013-11-25 21:20:00,21.1,17.0,30.45,SSW,211,0.0,1.0,85,0.00,,,0.43,weatherlink.com 1.10,2013-11-26 04:20:00,
2013-11-25 21:35:00,20.3,17.0,30.45,SSW,211,0.0,2.0,87,0.00,,,0.43,weatherlink.com 1.10,2013-11-26 04:35:00,
2013-11-25 21:50:00,19.7,17.0,30.47,SSW,211,0.0,2.0,87,0.00,,,0.43,weatherlink.com 1.10,2013-11-26 04:50:00,
2013-11-25 22:05:00,19.7,17.0,30.47,SSW,211,0.0,2.0,88,0.00,,,0.43,weatherlink.com 1.10,2013-11-26 05:05:00,
2013-11-25 22:20:00,20.6,18.0,30.47,SSW,211,0.0,4.0,89,0.00,,,0.43,weatherlink.com 1.10,2013-11-26 05:20:00,
2013-11-25 22:35:00,20.2,17.0,30.48,SSW,211,0.0,2.0,86,0.00,,,0.43,weatherlink.com 1.10,2013-11-26 05:35:00,
2013-11-25 22:50:00,19.7,17.0,30.48,SSW,211,0.0,3.0,88,0.00,,,0.43,weatherlink.com 1.10,2013-11-26 05:50:00,
2013-11-25 23:05:00,20.1,17.0,30.48,SSW,211,0.0,3.0,88,0.00,,,0.43,weatherlink.com 1.10,2013-11-26 06:05:00,
2013-11-25 23:20:00,20.3,17.0,30.48,SSW,211,0.0,2.0,87,0.00,,,0.43,weatherlink.com 1.10,2013-11-26 06:20:00,
2013-11-25 23:35:00,20.1,17.0,30.48,SSW,211,1.0,3.0,87,0.00,,,0.43,weatherlink.com 1.10,2013-11-26 06:35:00,
2013-11-25 23:50:00,20.4,17.0,30.47,SSW,211,0.0,4.0,87,0.00,,,0.43,weatherlink.com 1.10,2013-11-26 06:50:00,